User: anonymous   Login
Location: Unspecified
(0.0000°N, 0.0000°E)
Time: 16:45:41
(UTC+02:00)
Language:

YAOGAN 3 - Orbit

View from above orbital plane
View from above orbital plane
View from above satellite
View from above satellite

Ground track
Ground track

The orbit data is extracted from the following two-line orbital elements,

1 32289U 07055A   15240.10107998  .00000550  00000-0  78613-4 0  9997
2 32289 097.9685 233.8661 0000884 075.1369 284.9950 14.80531245421209
Epoch (UTC): 28 August 2015 02:25:33
Eccentricity: 0.0000884
inclination: 97.9685°
perigee height: 627 km
apogee height: 628 km
right ascension of ascending node: 233.8661°
argument of perigee: 75.1369°
revolutions per day: 14.80531245
mean anomaly at epoch: 284.9950°
orbit number at epoch: 42120

The dashed part of the orbit path shows where the satellite is in the earth's shadow,  

DLR